Location: Observatoire
(46.1952°N, 5.3391°E)
Time: 08:25:44
(UTC+01:00)

Altair - Pass Details

Date: 25 February 2026
Orbit: 1502 x 1682 km, 47.2° (Epoch: 9 March)

Event Time Altitude Azimuth Distance (km) Brightness Sun altitude
Rises 01:02:53 0° 183° (S) 4,635 - -52.9°
Reaches altitude 10° 01:07:11 10° 165° (SSE) 3,646 - -52.8°
Maximum altitude 01:12:44 18° 127° (SE) 3,067 - -52.7°
Drops below altitude 10° 01:18:17 10° 89° (E) 3,662 - -52.5°
Exits shadow 01:19:43 - 82° (E) 3,964 9.8 -52.5°
Sets 01:22:34 0° 72° (ENE) 4,664 10.3 -52.4°
